Stündliche Wetter Judaszowka

Heute, 2 März, Dienstag

Zeit Temperatur Niederschläge Wind Luftdruck Luftfeuchtigkeit
00:00 -1°C° 0 mm 2 m/S 760 mmHg 93%
01:00 -1°C° 0 mm 2 m/S 760 mmHg 94%
02:00 -1°C° 0 mm 2 m/S 759 mmHg 94%
03:00 -1°C° 0 mm 2 m/S 759 mmHg 94%
04:00 -1°C° 0 mm 3 m/S 759 mmHg 94%
05:00 0°C° 0 mm 3 m/S 758 mmHg 93%
06:00 0°C° 0 mm 3 m/S 758 mmHg 91%
07:00 -1°C° 0 mm 4 m/S 758 mmHg 90%
08:00 +1°C° 0 mm 4 m/S 758 mmHg 83%
09:00 +3°C° 0 mm 4 m/S 758 mmHg 76%
10:00 +5°C° 0 mm 5 m/S 758 mmHg 69%
11:00 +6°C° 0 mm 5 m/S 758 mmHg 66%
12:00 +7°C° 0 mm 5 m/S 757 mmHg 63%
13:00 +8°C° 0 mm 5 m/S 757 mmHg 60%
14:00 +8°C° 0 mm 5 m/S 757 mmHg 61%
15:00 +8°C° 0 mm 5 m/S 757 mmHg 62%
16:00 +8°C° 0 mm 4 m/S 756 mmHg 64%
17:00 +7°C° 0 mm 4 m/S 756 mmHg 69%
18:00 +5°C° 0 mm 4 m/S 757 mmHg 74%
19:00 +4°C° 0 mm 4 m/S 757 mmHg 79%
20:00 +3°C° 0 mm 3 m/S 757 mmHg 82%
21:00 +3°C° 0 mm 3 m/S 757 mmHg 85%
22:00 +3°C° 0 mm 2 m/S 758 mmHg 88%
23:00 +3°C° 0 mm 2 m/S 758 mmHg 89%

Morgen, 3 März, Mittwoch

Zeit Temperatur Niederschläge Wind Luftdruck Luftfeuchtigkeit
00:00 +2°C° 0 mm 2 m/S 758 mmHg 90%
01:00 +2°C° 0 mm 2 m/S 758 mmHg 91%
02:00 +1°C° 0 mm 2 m/S 758 mmHg 91%
03:00 +1°C° 0 mm 2 m/S 757 mmHg 92%
04:00 +1°C° 0 mm 2 m/S 757 mmHg 92%
05:00 +1°C° 0 mm 2 m/S 757 mmHg 92%
06:00 +2°C° 0 mm 1 m/S 757 mmHg 92%
07:00 +2°C° 0 mm 1 m/S 757 mmHg 92%
08:00 +4°C° 0 mm 1 m/S 757 mmHg 84%
09:00 +6°C° 0 mm 1 m/S 757 mmHg 77%
10:00 +6°C° 0 mm 2 m/S 756 mmHg 69%
11:00 +7°C° 0 mm 2 m/S 756 mmHg 64%
12:00 +9°C° 0 mm 2 m/S 756 mmHg 59%
13:00 +10°C° 0 mm 2 m/S 755 mmHg 53%
14:00 +10°C° 0 mm 2 m/S 754 mmHg 54%
15:00 +10°C° 0 mm 2 m/S 754 mmHg 56%
16:00 +11°C° 0 mm 1 m/S 753 mmHg 57%
17:00 +8°C° 0 mm 2 m/S 753 mmHg 62%
18:00 +7°C° 0 mm 2 m/S 753 mmHg 68%
19:00 +6°C° 0 mm 2 m/S 752 mmHg 74%
20:00 +4°C° 0 mm 3 m/S 752 mmHg 78%
21:00 +4°C° 0 mm 3 m/S 751 mmHg 82%
22:00 +3°C° 0 mm 4 m/S 751 mmHg 86%
23:00 +3°C° 0 mm 4 m/S 750 mmHg 87%

übermorgen, 4 März, Donnerstag

Zeit Temperatur Niederschläge Wind Luftdruck Luftfeuchtigkeit
00:00 +3°C° 0 mm 4 m/S 750 mmHg 87%
01:00 +2°C° 0 mm 5 m/S 750 mmHg 88%
02:00 +2°C° 0 mm 5 m/S 749 mmHg 88%
03:00 +1°C° 0 mm 5 m/S 748 mmHg 88%
04:00 +1°C° 0 mm 5 m/S 748 mmHg 88%
05:00 +1°C° 0 mm 5 m/S 747 mmHg 87%
06:00 +1°C° 0 mm 5 m/S 747 mmHg 86%
07:00 +1°C° 0 mm 5 m/S 747 mmHg 85%
08:00 +3°C° 0 mm 5 m/S 746 mmHg 77%
09:00 +6°C° 0 mm 5 m/S 746 mmHg 70%
10:00 +7°C° 0 mm 6 m/S 745 mmHg 62%
11:00 +8°C° 0 mm 6 m/S 745 mmHg 60%
12:00 +10°C° 0 mm 6 m/S 744 mmHg 57%
13:00 +11°C° 0 mm 6 m/S 744 mmHg 55%
14:00 +10°C° 0 mm 6 m/S 743 mmHg 58%
15:00 +10°C° 0 mm 5 m/S 743 mmHg 60%
16:00 +11°C° 0 mm 4 m/S 742 mmHg 63%
17:00 +8°C° 0 mm 4 m/S 742 mmHg 68%
18:00 +7°C° 0 mm 4 m/S 742 mmHg 73%
19:00 +6°C° 0 mm 4 m/S 742 mmHg 78%
20:00 +6°C° 0.1 mm 4 m/S 742 mmHg 79%
21:00 +7°C° 0.1 mm 3 m/S 742 mmHg 80%
22:00 +7°C° 0.1 mm 3 m/S 742 mmHg 81%
23:00 +5°C° 0.7 mm 3 m/S 741 mmHg 85%

5 März, Freitag

Zeit Temperatur Niederschläge Wind Luftdruck Luftfeuchtigkeit
00:00 +5°C° 0.7 mm 3 m/S 741 mmHg 88%
01:00 +6°C° 0.7 mm 2 m/S 741 mmHg 92%
02:00 +4°C° 0.9 mm 3 m/S 740 mmHg 93%
03:00 +4°C° 0.9 mm 3 m/S 740 mmHg 94%
04:00 +3°C° 0.9 mm 3 m/S 740 mmHg 95%
05:00 +1°C° 0.8 mm 4 m/S 740 mmHg 95%
06:00 +1°C° 0.8 mm 4 m/S 741 mmHg 96%
07:00 0°C° 0.8 mm 4 m/S 741 mmHg 96%
08:00 0°C° 0.2 mm 4 m/S 742 mmHg 95%
09:00 0°C° 0.2 mm 4 m/S 742 mmHg 94%
10:00 -1°C° 0.2 mm 4 m/S 743 mmHg 93%
11:00 -1°C° 0.1 mm 4 m/S 743 mmHg 90%
12:00 0°C° 0.1 mm 5 m/S 744 mmHg 86%
13:00 0°C° 0.1 mm 5 m/S 744 mmHg 83%
14:00 0°C° 0.1 mm 5 m/S 745 mmHg 78%
15:00 0°C° 0.1 mm 4 m/S 745 mmHg 72%
16:00 0°C° 0.1 mm 4 m/S 746 mmHg 66%
17:00 -1°C° 0 mm 4 m/S 746 mmHg 66%
18:00 -1°C° 0 mm 3 m/S 747 mmHg 66%
19:00 -2°C° 0 mm 3 m/S 748 mmHg 66%
20:00 -2°C° 0 mm 3 m/S 749 mmHg 65%
21:00 -2°C° 0 mm 2 m/S 749 mmHg 64%
22:00 -2°C° 0 mm 2 m/S 750 mmHg 63%
23:00 -2°C° 0 mm 2 m/S 750 mmHg 63%

6 März, Samstag

Zeit Temperatur Niederschläge Wind Luftdruck Luftfeuchtigkeit
00:00 -2°C° 0 mm 2 m/S 750 mmHg 63%
01:00 -2°C° 0 mm 2 m/S 751 mmHg 62%
02:00 -2°C° 0 mm 2 m/S 751 mmHg 62%
03:00 -2°C° 0 mm 2 m/S 751 mmHg 61%
04:00 -2°C° 0 mm 2 m/S 751 mmHg 60%
05:00 -2°C° 0 mm 3 m/S 752 mmHg 65%
06:00 -3°C° 0 mm 4 m/S 752 mmHg 70%
07:00 -4°C° 0 mm 5 m/S 753 mmHg 75%
08:00 -4°C° 0.1 mm 5 m/S 753 mmHg 73%
09:00 -4°C° 0.1 mm 5 m/S 754 mmHg 70%
10:00 -3°C° 0.1 mm 6 m/S 754 mmHg 68%
11:00 -2°C° 0.1 mm 5 m/S 754 mmHg 60%
12:00 -1°C° 0.1 mm 5 m/S 755 mmHg 52%
13:00 0°C° 0.1 mm 5 m/S 755 mmHg 45%
14:00 0°C° 0 mm 5 m/S 755 mmHg 44%
15:00 -1°C° 0 mm 4 m/S 755 mmHg 43%
16:00 -1°C° 0 mm 4 m/S 755 mmHg 43%
17:00 -2°C° 0 mm 4 m/S 756 mmHg 47%
18:00 -2°C° 0 mm 3 m/S 756 mmHg 52%
19:00 -2°C° 0 mm 2 m/S 756 mmHg 56%
20:00 -2°C° 0 mm 3 m/S 756 mmHg 56%
21:00 -2°C° 0 mm 3 m/S 757 mmHg 57%
22:00 -2°C° 0 mm 3 m/S 757 mmHg 57%
23:00 -3°C° 0 mm 4 m/S 757 mmHg 57%

7 März, Sonntag

Zeit Temperatur Niederschläge Wind Luftdruck Luftfeuchtigkeit
00:00 -3°C° 0 mm 4 m/S 756 mmHg 58%
01:00 -4°C° 0 mm 5 m/S 756 mmHg 58%
02:00 -4°C° 0 mm 5 m/S 756 mmHg 58%
03:00 -4°C° 0 mm 5 m/S 756 mmHg 58%
04:00 -4°C° 0 mm 6 m/S 755 mmHg 58%
05:00 -4°C° 0 mm 6 m/S 755 mmHg 57%
06:00 -4°C° 0 mm 6 m/S 755 mmHg 56%
07:00 -4°C° 0 mm 6 m/S 755 mmHg 55%
08:00 -3°C° 0 mm 7 m/S 754 mmHg 53%
09:00 -1°C° 0 mm 7 m/S 754 mmHg 51%
10:00 0°C° 0 mm 8 m/S 754 mmHg 48%
11:00 0°C° 0 mm 8 m/S 753 mmHg 49%
12:00 +1°C° 0 mm 8 m/S 753 mmHg 49%
13:00 +1°C° 0 mm 8 m/S 752 mmHg 49%
14:00 +2°C° 0 mm 7 m/S 752 mmHg 52%
15:00 +2°C° 0 mm 6 m/S 751 mmHg 54%
16:00 +2°C° 0 mm 6 m/S 750 mmHg 57%
17:00 +1°C° 0 mm 5 m/S 750 mmHg 60%
18:00 0°C° 0 mm 5 m/S 750 mmHg 63%
19:00 -1°C° 0 mm 5 m/S 749 mmHg 66%
20:00 -1°C° 0 mm 5 m/S 749 mmHg 67%
21:00 -1°C° 0 mm 5 m/S 749 mmHg 68%
22:00 -2°C° 0 mm 5 m/S 749 mmHg 70%
23:00 -2°C° 0 mm 5 m/S 748 mmHg 69%
Mehr zeigen

Wir brauchen deine Erlaubnis

Meteoprog und unser Service Anbieter werden persönliche Daten aufbewahren, so wie Cookies, Geräte Bezeichnung oder ähnliche Technologien von deinem Gerät und Prozess, so wie Persönliche Daten Inhalte und Werbungen, genauso wie social Media und den Verkehr zu analysieren.

  • Aufbewahrung und/oder Zugang zu deiner Geräte Informationen.

    Cookies, Geräte Bezeichnung oder andere Informationen, können aufbewahrt oder Zugang zu deinem Gerät erhalten, für den Grund, der oben angegeben wird.

  • Personalisierte Werbung und Inhalte, Messungen, Einblick in das Publikum und Produkt Entwicklung.

    Werbungen und Inhalte können personalisiert werden, basierend auf ein Profil. Mehr Daten können besser personalisierte Werbungen und Inhalte hinzufügen. Werbung und Inhalte können gezeigt und gemessen werden. Einblicke über das Publikum, welche die Werbung gesehen haben und den Inhalt, können abgeleitet werden. So wie Daten können genutzt werden, um es zu verbessern oder die Benutzer Erfahrung zu verbessern das System und die Software.

Wenn du “Ich stimme zu” klickst, erlaubst du uns, die Cookies zu benutzen die Geräte Bezeichnung, den Web oder ähnliche Technologien zu benutzen. Deine Settings, können in deinem Gerät bei deinem Browser geändert werden.

Für den bestimmten Zweck, berechtigten Interessen beruhen darauf, mehr als auf den Inhalt. Du kannst mehr darüber in unseren Privaten und Cookie Politik lesen.